User: anonymous   Login
Location: Cajon Junction
(34.3117°N, 117.4748°W)
Time: 20:51:24
(UTC+00:00)
Language:

Cosmos 1244 Rocket - Orbit

View from above orbital plane
View from above orbital plane
View from above satellite
View from above satellite

Ground track
Ground track

The orbit data is extracted from the following two-line orbital elements,

1 12298U 81013B   24170.59552215  .00000076  00000-0  61797-4 0  9990
2 12298  82.9489 229.9239 0028347 293.3400 175.5245 13.76812445176997
Epoch (UTC): 18 June 2024 14:17:33
Eccentricity: 0.0028347
inclination: 82.9489°
perigee height: 954 km
apogee height: 996 km
right ascension of ascending node: 229.9239°
argument of perigee: 293.3400°
revolutions per day: 13.76812445
mean anomaly at epoch: 175.5245°
orbit number at epoch: 17699

The dashed part of the orbit path shows where the satellite is in the earth's shadow,  

DLR